Location: B�hl
(48.6968°N, 8.1352°E)
Time: 02:53:35
(UTC+00:00)

NOSS 3-2 (C) - Pass Details

Date: 08 March 2021
Orbit: 783 x 1429 km, 63.4° (Epoch: 11 April)

Event Time Altitude Azimuth Distance (km) Brightness Sun altitude
Rises 20:46:56 0° 238° (WSW) 3,376 6.6 -32.8°
Reaches altitude 10° 20:49:18 10° 243° (WSW) 2,502 5.9 -33.2°
Maximum altitude 20:54:59 54° 321° (NW) 1,139 4.0 -33.9°
Enters shadow 20:56:00 49° 354° (N) 1,229 4.1 -34.0°
Exits shadow 21:02:28 - 40° (NE) 3,218 6.2 -34.9°
Sets 21:04:33 0° 43° (NE) 3,973 6.7 -35.1°
